Home > Weather > Rouen > Past weeks

Flag for France Past Weather in Rouen, Upper Normandy, France — Yesterday and Last 2 Weeks

Now
55 °F

Mostly cloudy.


Feels Like: 53 °F
Forecast: 54 / 68 °F
Wind: 9 mph from Southwest

Location: Rouen Airport

Current Time: Jun 26, 2016 at 8:28:45 AM

Latest Report: Jun 26, 2016 at 8:00 AM


Visibility: N/A

Pressure: 30.12 "Hg

Humidity: 94%

Dew Point: 54 °F

Location of RouenLocation

Past Weather in Rouen — Graph

°F

Rouen Temperature Yesterday

Maximum temperature yesterday: 66 °F (at 3:00 PM)
Minimum temperature yesterday: 52 °F (at 6:30 AM)
Average temperature yesterday: 59 °F

High & Low Weather Summary for the Past Weeks

 TemperatureHumidityPressure
High82 °F (Jun 22, 3:00 PM)100% (Jun 12, 1:00 AM)30.30 "Hg (Jun 12, 1:00 AM)
Low48 °F (Jun 16, 4:30 AM)47% (Jun 11, 4:00 PM)29.47 "Hg (Jun 15, 1:30 AM)
Average61 °F85%29.91 "Hg
* Reported Jun 11 7:00 AM — Jun 26 7:00 AM, Rouen, Weather by CustomWeather, © 2016

Note: Actual official high and low records may vary slightly from our data, if they occured in-between our weather recording intervals... More about our weather records

Advertising

Rouen Weather History for the Previous 24 Hours

Scroll right to see more
 ConditionsComfort  
Time TempWeatherWind HumidityBarometerVisibility
7:00 AM
Sun, Jun 26
54 °FLow clouds.8 mph94%30.09 "Hg5 mi
6:30 AM54 °FLow clouds.8 mph94%30.09 "Hg5 mi
6:00 AM54 °FLow clouds.6 mph94%30.09 "Hg6 mi
5:30 AM54 °FLow clouds.7 mph94%30.09 "HgN/A
5:00 AM54 °FLow clouds.9 mph94%30.09 "HgN/A
4:30 AM54 °FLow clouds.9 mph94%30.09 "HgN/A
4:00 AM54 °FMostly cloudy.9 mph94%30.09 "HgN/A
3:30 AM54 °FLow clouds.9 mph94%30.09 "HgN/A
3:00 AM54 °FPassing clouds.8 mph94%30.09 "HgN/A
2:30 AM54 °FPassing clouds.8 mph94%30.09 "HgN/A
2:00 AM54 °FPassing clouds.7 mph94%30.09 "HgN/A
1:30 AM54 °FPassing clouds.7 mph94%30.09 "HgN/A
1:00 AM54 °FPassing clouds.8 mph94%30.09 "HgN/A
12:30 AM54 °FMostly cloudy.6 mph94%30.09 "HgN/A
12:00 AM54 °FPassing clouds.7 mph94%30.09 "HgN/A
11:30 PM
Sat, Jun 25
54 °FClear.6 mph88%30.09 "Hg10 mi
11:00 PM55 °FSunny.7 mph88%30.09 "Hg10 mi
10:30 PM55 °FLight rain. Passing clouds.6 mph88%30.09 "HgN/A
10:00 PM57 °FPassing clouds.7 mph82%30.09 "HgN/A
9:30 PM59 °FBroken clouds.7 mph77%30.09 "HgN/A
9:00 PM61 °FPartly sunny.8 mph72%30.09 "HgN/A
8:30 PM63 °FPartly sunny.8 mph64%30.09 "HgN/A
8:00 PM63 °FBroken clouds.8 mph64%30.09 "HgN/A
7:30 PM61 °FPartly sunny.8 mph68%30.09 "HgN/A
7:00 PM64 °FMore clouds than sun.10 mph60%30.09 "HgN/A
6:30 PM63 °FMostly cloudy.13 mph59%30.09 "HgN/A
6:00 PM64 °FPartly sunny.10 mph60%30.09 "HgN/A
5:30 PM64 °FBroken clouds.14 mph64%30.09 "HgN/A
5:00 PM64 °FBroken clouds.12 mph60%30.09 "HgN/A
4:30 PM64 °FPassing clouds.12 mph60%30.09 "HgN/A
4:00 PM66 °FBroken clouds.14 mph52%30.09 "HgN/A
3:30 PM64 °FBroken clouds.13 mph60%30.07 "HgN/A
3:00 PM66 °FBroken clouds.12 mph60%30.07 "HgN/A
2:30 PM64 °FScattered clouds.12 mph52%30.07 "HgN/A
2:00 PM63 °FPartly sunny.7 mph64%30.07 "HgN/A
1:30 PM63 °FPartly sunny.6 mph64%30.09 "HgN/A
1:00 PM63 °FBroken clouds.9 mph68%30.07 "HgN/A
12:30 PM63 °FMild.9 mph73%30.07 "HgN/A
12:00 PM61 °FLight rain. Broken clouds.13 mph72%30.09 "HgN/A
11:30 AM63 °FScattered clouds.9 mph64%30.07 "HgN/A
11:00 AM61 °FBroken clouds.9 mph72%30.09 "HgN/A
10:30 AM61 °FMostly cloudy.8 mph77%30.09 "HgN/A
10:00 AM59 °FMostly cloudy.8 mph82%30.09 "HgN/A
9:30 AM59 °FMostly cloudy.7 mph82%30.09 "HgN/A
9:00 AM57 °FMostly cloudy.7 mph88%30.09 "HgN/A
8:30 AM57 °FMostly cloudy.8 mph82%30.07 "HgN/A
8:00 AM57 °FBroken clouds.6 mph88%30.07 "HgN/A
Weather by CustomWeather, © 2016

See weather overviewHow to use our weather pages